Date String (YYYY-MM-DD hh:mm:ss) UTC,Instrument flags,Ambient pressure (hPa),Sample flow (lpm),Bypass flow (lpm),Sample temperature (°C),Ambient temperature (°C),ASC tube jacket temperature (°C),LED temperature (°C),Box temperature (°C),Sample RH (%),Span deviation,Mass concentration (μg/m³),Mass concentration (μg/m³),Mass concentration (μg/m³)
DateTimeUTC,F1_M11,P_M11,Q1_M11,Q2_M11,T1_M11,T2_M11,T3_M11,T4_M11,T5_M11,U1_M11,ZSPAN_M11,X2_M11,X0_M11,X1_M11
2021-12-26 03:00:00,,0818.9,5.01,0.00,22.7,21.9,00.0,31.7,24.3,09.8,0000.0,0001.20,0001.81,0001.02
2021-12-26 03:01:00,,0818.9,5.00,0.00,22.7,21.9,00.0,31.7,24.2,10.0,0000.0,0001.23,0001.90,0001.05
2021-12-26 03:02:00,,0818.8,4.99,0.00,22.7,21.8,00.0,31.7,24.2,10.2,0000.0,0001.27,0001.94,0001.06
2021-12-26 03:03:00,,0818.8,5.02,0.00,22.7,21.8,00.0,31.7,24.3,10.1,0000.0,0001.28,0001.87,0001.08
2021-12-26 03:04:00,,0818.7,4.99,0.00,22.7,21.8,00.0,31.7,24.3,09.9,0000.0,0001.29,0001.87,0001.08
2021-12-26 03:05:00,,0818.7,5.00,0.00,22.6,21.8,00.0,31.7,24.3,09.6,0000.0,0001.29,0001.90,0001.07
2021-12-26 03:06:00,,0818.7,5.00,0.00,22.6,21.8,00.0,31.7,24.3,09.4,0000.0,0001.24,0001.89,0001.04
2021-12-26 03:07:00,,0818.7,4.99,0.00,22.6,21.9,00.0,31.7,24.3,09.3,0000.0,0001.18,0001.80,0001.00
2021-12-26 03:08:00,,0818.8,5.01,0.00,22.6,21.9,00.0,31.7,24.3,09.3,0000.0,0001.18,0001.84,0000.97
2021-12-26 03:09:00,,0818.8,5.01,0.00,22.6,21.8,00.0,31.7,24.3,09.3,0000.0,0001.17,0001.83,0000.96
2021-12-26 03:10:00,,0818.7,4.99,0.00,22.6,21.8,00.0,31.7,24.3,09.3,0000.0,0001.14,0001.72,0000.95
2021-12-26 03:11:00,,0818.7,5.01,0.00,22.6,21.8,00.0,31.7,24.2,09.3,0000.0,0001.13,0001.70,0000.94
2021-12-26 03:12:00,,0818.7,5.01,0.00,22.6,21.8,00.0,31.6,24.3,09.3,0000.0,0001.07,0001.54,0000.90
2021-12-26 03:13:00,,0818.7,5.00,0.00,22.6,21.8,00.0,31.6,24.2,09.3,0000.0,0001.01,0001.43,0000.88
2021-12-26 03:14:00,,0818.7,4.99,0.00,22.6,21.8,00.0,31.6,24.2,09.8,0000.0,0000.97,0001.38,0000.85
2021-12-26 03:15:00,,0818.7,5.01,0.00,22.6,21.8,00.0,31.6,24.2,11.4,0000.0,0001.04,0002.59,0000.88
2021-12-26 03:16:00,,0818.7,4.99,0.00,22.6,21.7,00.0,31.6,24.2,12.5,0000.0,0001.15,0002.94,0000.96
2021-12-26 03:17:00,,0818.7,5.01,0.00,22.6,21.7,00.0,31.6,24.3,12.9,0000.0,0001.30,0003.12,0001.06
2021-12-26 03:18:00,,0818.5,4.99,0.00,22.6,21.8,00.0,31.6,24.3,12.8,0000.0,0001.42,0004.86,0001.17
2021-12-26 03:19:00,,0818.5,4.99,0.00,22.6,21.8,00.0,31.6,24.3,12.7,0000.0,0001.48,0004.89,0001.25
2021-12-26 03:20:00,,0818.5,5.02,0.00,22.6,21.8,00.0,31.6,24.3,12.3,0000.0,0001.60,0005.27,0001.33
2021-12-26 03:21:00,,0818.5,4.98,0.00,22.6,21.8,00.0,31.6,24.3,12.2,0000.0,0001.73,0005.65,0001.39
2021-12-26 03:22:00,,0818.6,5.01,0.00,22.6,21.8,00.0,31.6,24.3,12.4,0000.0,0001.81,0005.75,0001.45
2021-12-26 03:23:00,,0818.5,5.00,0.00,22.6,21.8,00.0,31.6,24.3,12.3,0000.0,0001.93,0006.04,0001.52
2021-12-26 03:24:00,,0818.4,4.99,0.00,22.6,21.8,00.0,31.6,24.3,12.2,0000.0,0002.04,0006.93,0001.60
2021-12-26 03:25:00,,0818.4,5.01,0.00,22.6,21.8,00.0,31.6,24.3,12.1,0000.0,0002.12,0007.08,0001.65
2021-12-26 03:26:00,,0818.4,4.99,0.00,22.6,21.8,00.0,31.6,24.3,12.2,0000.0,0002.15,0006.31,0001.68
2021-12-26 03:27:00,,0818.4,5.01,0.00,22.6,21.8,00.0,31.6,24.3,12.1,0000.0,0002.15,0006.17,0001.66
2021-12-26 03:28:00,,0818.4,4.99,0.00,22.6,21.8,00.0,31.6,24.3,12.2,0000.0,0002.12,0006.74,0001.64
2021-12-26 03:29:00,,0818.4,5.00,0.00,22.6,21.8,00.0,31.6,24.3,12.1,0000.0,0002.11,0006.12,0001.61
2021-12-26 03:30:00,,0818.4,5.00,0.00,22.6,21.8,00.0,31.6,24.3,12.0,0000.0,0002.08,0005.72,0001.59
2021-12-26 03:31:00,,0818.4,4.98,0.00,22.6,21.8,00.0,31.6,24.3,12.1,0000.0,0002.03,0005.51,0001.56
2021-12-26 03:32:00,,0818.4,5.01,0.00,22.6,21.8,00.0,31.6,24.2,11.3,0000.0,0001.99,0005.31,0001.53
2021-12-26 03:33:00,,0818.4,5.00,0.00,22.6,21.7,00.0,31.6,24.2,10.1,0000.0,0001.91,0005.20,0001.48
2021-12-26 03:34:00,,0818.3,5.00,0.00,22.6,21.7,00.0,31.6,24.2,10.7,0000.0,0001.82,0005.06,0001.42
2021-12-26 03:35:00,,0818.2,5.01,0.00,22.6,21.7,00.0,31.6,24.2,10.8,0000.0,0001.78,0004.33,0001.38
2021-12-26 03:36:00,,0818.2,4.99,0.00,22.6,21.7,00.0,31.6,24.2,10.6,0000.0,0001.73,0004.53,0001.34
2021-12-26 03:37:00,,0818.2,5.01,0.00,22.6,21.6,00.0,31.6,24.2,10.7,0000.0,0001.69,0005.43,0001.31
2021-12-26 03:38:00,,0818.2,5.00,0.00,22.6,21.6,00.0,31.6,24.2,10.6,0000.0,0001.61,0005.20,0001.27
2021-12-26 03:39:00,,0818.2,4.99,0.00,22.6,21.6,00.0,31.6,24.2,10.5,0000.0,0001.54,0004.43,0001.22
2021-12-26 03:40:00,,0818.2,5.01,0.00,22.6,21.6,00.0,31.6,24.2,10.6,0000.0,0001.46,0003.65,0001.17
2021-12-26 03:41:00,,0818.1,5.00,0.00,22.5,21.6,00.0,31.6,24.1,10.7,0000.0,0001.39,0003.49,0001.12
2021-12-26 03:42:00,,0818.1,4.99,0.00,22.5,21.6,00.0,31.6,24.2,10.8,0000.0,0001.36,0003.53,0001.09
2021-12-26 03:43:00,,0818.1,5.01,0.00,22.5,21.6,00.0,31.6,24.2,10.8,0000.0,0001.30,0003.50,0001.06
2021-12-26 03:44:00,,0818.0,4.98,0.00,22.5,21.6,00.0,31.6,24.1,10.6,0000.0,0001.31,0003.82,0001.08
2021-12-26 03:45:00,,0818.0,5.01,0.00,22.5,21.5,00.0,31.6,24.1,10.4,0000.0,0001.32,0004.18,0001.08
2021-12-26 03:46:00,,0818.0,4.99,0.00,22.5,21.5,00.0,31.6,24.1,10.3,0000.0,0001.28,0004.08,0001.07
2021-12-26 03:47:00,,0818.0,5.01,0.00,22.5,21.5,00.0,31.6,24.1,10.4,0000.0,0001.27,0003.74,0001.06
2021-12-26 03:48:00,,0818.0,5.00,0.00,22.5,21.5,00.0,31.6,24.1,10.4,0000.0,0001.25,0002.66,0001.05
2021-12-26 03:49:00,,0818.0,5.00,0.00,22.5,21.5,00.0,31.6,24.1,10.4,0000.0,0001.27,0002.69,0001.05
2021-12-26 03:50:00,,0817.9,4.98,0.00,22.5,21.5,00.0,31.6,24.1,10.2,0000.0,0001.26,0002.66,0001.05
2021-12-26 03:51:00,,0818.0,5.02,0.00,22.5,21.4,00.0,31.5,24.1,10.1,0000.0,0001.26,0002.64,0001.04
2021-12-26 03:52:00,,0818.0,4.99,0.00,22.5,21.5,00.0,31.5,24.1,09.9,0000.0,0001.27,0002.69,0001.04
2021-12-26 03:53:00,,0818.0,5.00,0.00,22.5,21.4,00.0,31.5,24.0,09.8,0000.0,0001.28,0002.69,0001.03
2021-12-26 03:54:00,,0817.9,5.01,0.00,22.5,21.4,00.0,31.5,24.0,09.8,0000.0,0001.25,0002.43,0001.01
2021-12-26 03:55:00,,0817.9,5.00,0.00,22.4,21.4,00.0,31.5,24.0,09.8,0000.0,0001.21,0002.13,0000.99
2021-12-26 03:56:00,,0817.8,4.99,0.00,22.4,21.4,00.0,31.5,24.0,09.8,0000.0,0001.19,0001.66,0000.96
2021-12-26 03:57:00,,0817.9,5.00,0.00,22.4,21.4,00.0,31.5,24.0,09.8,0000.0,0001.20,0001.81,0000.95
2021-12-26 03:58:00,,0817.9,5.01,0.00,22.4,21.4,00.0,31.5,24.0,09.8,0000.0,0001.17,0001.75,0000.92
2021-12-26 03:59:00,,0818.0,4.98,0.00,22.4,21.3,00.0,31.5,24.0,09.8,0000.0,0001.13,0001.71,0000.90
